Location: Marengo
(51.4813°N, 109.7825°W)
Time: 02:59:07
(UTC+00:00)

BlueWalker 3 - Pass Details

Date: 10 December 2022
Orbit: 499 x 517 km, 53.2° (Epoch: 26 January)

Event Time Altitude Azimuth Distance (km) Brightness Sun altitude
Rises 00:54:51 0° 289° (WNW) 2,635 6.5 -15.2°
Reaches altitude 10° 00:57:07 10° 284° (WNW) 1,742 5.6 -15.5°
Maximum altitude 01:00:54 47° 210° (SSW) 686 2.9 -16.1°
Enters shadow 01:04:23 12° 138° (SE) 1,616 4.2 -16.6°
